[[{"header":{"parameterUnit":"m.s-1","parameterCategory":1,"la1":30.2991,"la2":30.254,"lo1":-89.0895,"lo2":-89.0444,"dy":0.0017,"dx":0.0017,"nx":28,"ny":28,"refTime":"2023-06-18T21:00:00:Z","depth":0,"parameterNumber":2,"parameterNumberName":"U-component_of_WINDS"},"data":[0,0,0,0,0,0,0,0,0,0,0,0,0,0,0,0,0,0,0,0,0,0,0,0,0,0,0,0,0,0,0,0,0,0,0,0,0,0,0,0,0,0,0,0,0,0,0,0,0,0,0,0,0,0,0,0,0,0,5.8077,5.8078,0,5.8198,5.82,5.8201,5.8136,5.8133,5.813,5.8127,5.825,5.8256,5.8263,0,0,0,0,0,0,0,0,0,0,0,0,0,5.7787,5.7793,5.8077,5.8079,5.808,5.8198,5.82,5.8202,5.8137,5.8133,5.8129,5.8125,5.8248,5.8256,5.8263,0,0,0,0,0,0,0,0,0,0,0,0,0,5.7911,5.7795,5.8077,5.8062,5.8062,5.8198,5.82,5.8202,5.8138,5.8133,5.8128,5.8123,5.8246,5.8255,5.8264,5.8421,0,0,5.8293,5.8297,0,0,0,0,0,0,0,0,5.7904,5.7922,5.8063,5.8063,5.8064,5.8147,5.8143,5.8275,5.8139,5.8109,5.8127,5.8121,5.822,5.8231,5.8265,5.8427,5.8432,5.8294,5.83,5.8304,5.8307,0,0,0,0,0,0,0,5.7896,5.7916,5.8125,5.8065,5.8065,5.8049,5.8061,5.8168,5.8191,5.8111,5.8107,5.8122,5.8219,5.8256,5.8267,5.8434,5.8294,5.8302,5.8308,5.8312,5.8727,5.8732,0,0,0,0,0,0,5.7888,5.791,5.8121,5.8129,5.797,5.8058,5.8072,5.8125,5.8189,5.8194,5.8126,5.8119,5.8242,5.8256,5.8271,5.8456,5.8304,5.8313,5.8318,5.8722,5.8728,5.8734,0,0,0,0,0,0,5.7882,5.7908,5.8116,5.8018,5.8043,5.8068,5.8129,5.813,5.8167,5.82,5.8204,5.816,5.8239,5.8258,5.8384,5.8459,5.8317,5.8326,5.8716,5.8724,5.8731,5.8829,0,0,0,0,0,0,5.7874,5.7906,5.7967,5.802,5.8049,5.8228,5.8134,5.8136,5.8183,5.8175,5.8233,5.8238,5.8236,5.837,5.8393,5.847,5.8333,5.8709,5.8719,5.8729,5.8819,5.8839,5.8856,0,0,0,0,0,5.7864,5.799,5.797,5.7996,5.8125,5.8232,5.8249,5.8245,5.819,5.825,5.8271,5.8236,5.8448,5.8383,5.8409,5.849,5.8704,5.8716,5.8728,5.881,5.8835,5.8856,0,0,0,0,0,0,5.7945,5.7997,5.7975,5.8122,5.8173,5.8221,5.8297,5.8272,5.8339,5.8328,5.832,5.8334,5.8464,5.849,5.8417,5.8643,5.8567,5.8585,5.8621,5.8645,5.8663,5.8653,5.8341,0,0,0,0,0,5.798,5.8063,5.8104,5.8229,5.8256,5.8273,5.8319,5.8312,5.8364,5.8385,5.8416,5.8468,5.8545,5.8597,5.8671,5.8823,5.8833,5.8891,5.891,5.8925,5.894,5.9018,5.9044,5.8773,5.8773,5.8773,0,0,5.8053,5.8092,5.8145,5.8247,5.8285,5.837,5.8291,5.8385,5.8447,5.8399,5.8519,5.8543,5.8601,5.8739,5.8802,5.8765,5.9017,5.894,5.8952,5.8959,5.9033,5.9059,5.9081,5.8782,5.878,5.8779,0,0,5.8229,5.8268,5.8375,5.8415,5.8474,5.8484,5.851,5.8562,5.8576,5.8696,5.866,5.8734,5.887,5.8911,5.895,5.9139,5.9107,5.9164,5.9261,5.9337,5.9359,5.9377,5.9441,5.9465,5.9178,5.9179,5.9179,0,5.8312,5.8439,5.8433,5.8529,5.8574,5.8534,5.8641,5.8681,5.8761,5.8792,5.875,5.8917,5.8953,5.9099,5.9145,5.9179,5.9206,5.9156,5.9356,5.9375,5.9392,5.9453,5.9478,5.9185,5.9184,5.9184,5.9183,0,5.8537,5.8625,5.8705,5.8782,5.8836,5.8938,5.8946,5.9001,5.8989,5.9002,5.9123,5.9165,5.9245,5.928,5.927,5.9424,5.9398,5.9357,5.928,5.9424,5.9481,5.9505,5.9194,5.9191,5.919,5.9188,0,0,5.8766,5.8838,5.8867,5.8901,5.8963,5.903,5.9129,5.9207,5.9253,5.931,5.939,5.9505,5.9466,5.951,5.9504,5.9572,5.9714,5.9521,5.9522,5.9552,5.9883,5.9911,5.9938,5.9695,5.9699,5.9703,5.9876,0,5.8943,5.9116,5.9113,5.9272,5.9352,5.9315,5.94,5.9446,5.9462,5.9531,5.9548,5.9628,5.9572,5.9598,5.9663,5.9683,5.978,5.9671,5.9767,5.9771,5.9751,5.9969,6.0,6.0162,5.9899,5.9903,5.9906,0,5.9173,5.9236,5.9403,5.945,5.9484,5.9561,5.963,5.9698,5.9749,5.9755,5.9803,5.9786,5.9884,5.9806,5.994,5.9865,5.9905,5.992,5.9926,5.9933,5.9845,5.9978,6.0214,6.0237,5.9942,5.9939,5.9936,0,5.9319,5.9447,5.9562,5.9592,5.9651,5.9706,5.9733,5.9779,5.9825,5.9886,5.9915,5.9987,6.0026,6.0082,6.0083,6.0027,6.0217,6.014,6.0222,6.0222,6.0262,6.0258,6.0504,6.0293,6.0292,6.0292,6.0291,0,5.9516,5.9619,5.9628,5.9699,5.9812,5.9807,5.9919,5.9941,5.9982,6.0055,6.0028,6.0097,6.0096,6.0166,6.0168,6.0276,6.0295,6.0301,6.0299,6.0301,6.03,6.0325,6.0312,6.0298,6.0297,6.0296,6.0295,0,5.9698,5.9709,5.9831,5.9876,5.989,5.9971,6.0009,6.0076,6.0088,6.0181,6.0202,6.0222,6.0302,6.031,6.0404,6.0405,6.0534,6.0523,6.0517,6.0513,6.0594,6.0585,6.0861,6.0895,6.0665,6.0667,6.0669,0,5.9821,5.9898,5.9952,5.9999,6.0028,6.0105,6.0151,6.0149,6.0198,6.0261,6.0319,6.0397,6.0458,6.0589,6.061,6.0681,6.0669,6.0761,6.0679,6.0677,6.0665,6.0659,6.0665,6.0775,6.0778,6.078,6.0782,0,6.0037,6.0038,6.0106,6.0175,6.0231,6.0286,6.0337,6.0377,6.0381,6.0438,6.0519,6.0567,6.0662,6.0738,6.0807,6.0833,6.0808,6.0808,6.0829,6.0831,6.0822,6.0824,6.0556,6.0801,6.0799,6.0797,6.0796,6.0796,6.019,6.0256,6.0303,6.0379,6.0417,6.0465,6.0529,6.0549,6.0617,6.0693,6.0688,6.0777,6.0824,6.0914,6.0945,6.1014,6.0983,6.1016,6.1024,6.1031,6.1037,6.0814,6.1027,6.1027,6.1026,6.1026,6.1025,0,6.0402,6.043,6.05,6.0571,6.0631,6.0602,6.0656,6.0707,6.0786,6.0832,6.0893,6.0985,6.1058,6.1086,6.1157,6.1206,6.1196,6.1225,6.1219,6.1225,6.1063,6.1035,6.1232,6.1232,6.1232,6.1232,6.1231,6.1231,6.0518,6.0627,6.0634,6.076,6.0788,6.0874,6.0907,6.0951,6.0987,6.1091,6.1151,6.1169,6.1206,6.128,6.1345,6.1351,6.1376,6.141,6.141,6.1258,6.1237,6.1217,6.119,6.1416,6.1417,6.1566,6.1567,6.1568]},{"header":{"parameterUnit":"m.s-1","parameterCategory":1,"la1":30.2991,"la2":30.254,"lo1":-89.0895,"lo2":-89.0444,"dy":0.0017,"dx":0.0017,"nx":28,"ny":28,"refTime":"2023-06-18T21:00:00:Z","depth":0,"parameterNumber":3,"parameterNumberName":"V-component_of_WINDS"},"data":[0,0,0,0,0,0,0,0,0,0,0,0,0,0,0,0,0,0,0,0,0,0,0,0,0,0,0,0,0,0,0,0,0,0,0,0,0,0,0,0,0,0,0,0,0,0,0,0,0,0,0,0,0,0,0,0,0,0,4.4509,4.451,0,4.4615,4.4616,4.4617,4.4617,4.4616,4.4615,4.4613,4.4719,4.4723,4.4727,0,0,0,0,0,0,0,0,0,0,0,0,0,4.4302,4.4306,4.4509,4.451,4.4511,4.4615,4.4616,4.4618,4.4618,4.4616,4.4614,4.4613,4.4717,4.4722,4.4727,0,0,0,0,0,0,0,0,0,0,0,0,0,4.4398,4.4307,4.4509,4.4524,4.4526,4.4615,4.4616,4.4618,4.4618,4.4616,4.4614,4.4612,4.4716,4.4722,4.4728,4.4807,0,0,4.4747,4.4749,0,0,0,0,0,0,0,0,4.4393,4.4406,4.452,4.4523,4.4526,4.4601,4.4582,4.4681,4.4618,4.4583,4.4613,4.4611,4.4681,4.469,4.4714,4.4812,4.4816,4.4747,4.4751,4.4754,4.4755,0,0,0,0,0,0,0,4.4386,4.4401,4.4551,4.4522,4.4525,4.4524,4.4536,4.4601,4.4642,4.4586,4.4586,4.4599,4.4682,4.4708,4.4717,4.4818,4.4747,4.4752,4.4756,4.4759,4.4985,4.4987,0,0,0,0,0,0,4.4377,4.4396,4.4547,4.4554,4.4453,4.453,4.4542,4.4579,4.4641,4.4649,4.4601,4.4599,4.4699,4.471,4.472,4.4817,4.4753,4.4759,4.4763,4.4982,4.4985,4.4988,0,0,0,0,0,0,4.4372,4.439,4.4543,4.4475,4.4494,4.4535,4.4576,4.4582,4.4608,4.4653,4.466,4.462,4.4698,4.4712,4.4785,4.482,4.4762,4.4768,4.498,4.4983,4.4986,4.501,0,0,0,0,0,0,4.4367,4.4389,4.442,4.4476,4.4498,4.4607,4.4579,4.4586,4.4619,4.4618,4.4673,4.468,4.4697,4.4776,4.4792,4.4828,4.4772,4.4977,4.4981,4.4985,4.5006,4.5013,4.502,0,0,0,0,0,4.4359,4.4422,4.4422,4.444,4.4538,4.461,4.4622,4.4642,4.4622,4.4653,4.4682,4.4678,4.4814,4.4784,4.4801,4.4839,4.4974,4.498,4.4985,4.5003,4.5012,4.502,0,0,0,0,0,0,4.4368,4.443,4.443,4.4513,4.4556,4.4609,4.4649,4.4651,4.47,4.4696,4.4717,4.473,4.4803,4.4829,4.4794,4.4919,4.4892,4.4901,4.4899,4.4908,4.4915,4.4907,4.4777,0,0,0,0,0,4.438,4.4434,4.4484,4.4552,4.4574,4.4608,4.464,4.4651,4.4696,4.4714,4.4748,4.4791,4.4843,4.4877,4.4928,4.501,4.5021,4.5044,4.5051,4.5057,4.5064,4.5108,4.5119,4.5005,4.5005,4.5005,0,0,4.4405,4.4445,4.4478,4.4555,4.459,4.4644,4.4623,4.4682,4.4722,4.4723,4.4795,4.4821,4.487,4.4948,4.4984,4.4971,4.5098,4.5064,4.5068,4.5072,4.5115,4.5125,4.5135,4.5008,4.5008,4.5007,0,0,4.4478,4.4514,4.4574,4.461,4.4663,4.4685,4.47,4.4753,4.4771,4.4843,4.4845,4.4892,4.4982,4.5017,4.5046,4.5132,4.513,4.5147,4.5184,4.5226,4.5235,4.5243,4.5273,4.5283,4.5155,4.5155,4.5155,0,4.4501,4.4584,4.4605,4.4664,4.4697,4.4702,4.4762,4.4795,4.4862,4.4884,4.487,4.4983,4.5016,4.5102,4.5123,4.5147,4.5163,4.5141,4.5233,4.5241,4.5249,4.5277,4.5288,4.5156,4.5156,4.5156,4.5156,0,4.461,4.4667,4.471,4.4775,4.4813,4.4872,4.4901,4.4937,4.4945,4.4968,4.5041,4.5082,4.514,4.5162,4.517,4.5248,4.5239,4.5228,4.5202,4.5261,4.5288,4.5299,4.5159,4.5158,4.5158,4.5157,0,0,4.4691,4.4767,4.4782,4.4812,4.4871,4.4915,4.4974,4.5032,4.5062,4.5108,4.5157,4.5233,4.5223,4.5257,4.5269,4.5306,4.537,4.5291,4.5293,4.5304,4.5458,4.5465,4.5477,4.5369,4.5372,4.5373,4.5453,0,4.4769,4.4876,4.4896,4.4988,4.504,4.5045,4.5096,4.5137,4.516,4.5207,4.5232,4.5285,4.5269,4.5289,4.5327,4.5354,4.5401,4.5349,4.5414,4.5416,4.5401,4.5492,4.5499,4.5573,4.5464,4.5466,4.5467,0,4.4875,4.4924,4.5021,4.5073,4.5096,4.5142,4.5196,4.5241,4.5287,4.5302,4.5339,4.5347,4.5406,4.5377,4.546,4.5424,4.5451,4.5469,4.5472,4.5478,4.5445,4.5499,4.5597,4.5608,4.5484,4.5483,4.5482,0,4.4923,4.5014,4.5084,4.5109,4.5171,4.5203,4.523,4.5274,4.5307,4.5355,4.5377,4.543,4.5459,4.5499,4.5521,4.5498,4.5601,4.5574,4.5613,4.5613,4.5634,4.5632,4.5737,4.5653,4.5653,4.5653,4.5653,0,4.5008,4.5067,4.5106,4.5149,4.5215,4.5237,4.5301,4.5328,4.5367,4.5414,4.5421,4.5465,4.5491,4.5538,4.5555,4.5619,4.5633,4.5645,4.5648,4.5644,4.5642,4.5662,4.5657,4.5656,4.5655,4.5655,4.5654,0,4.5073,4.5102,4.5178,4.5231,4.5245,4.5291,4.5336,4.5377,4.54,4.5459,4.5474,4.551,4.5566,4.5591,4.566,4.5671,4.5745,4.5745,4.573,4.5731,4.5768,4.5764,4.5889,4.5906,4.5811,4.5812,4.5813,0,4.5125,4.5171,4.5228,4.5261,4.5289,4.5341,4.5376,4.5399,4.5435,4.549,4.5524,4.5581,4.5627,4.5715,4.5747,4.5799,4.58,4.584,4.5808,4.5802,4.58,4.5796,4.58,4.5846,4.5846,4.5847,4.5848,0,4.5213,4.5225,4.5275,4.5331,4.5372,4.5416,4.5459,4.5485,4.5515,4.5554,4.5612,4.5647,4.5718,4.5773,4.5827,4.5854,4.5855,4.5858,4.587,4.5865,4.5854,4.5859,4.5745,4.5855,4.5854,4.5854,4.5853,4.5853,4.5273,4.5313,4.536,4.5416,4.5451,4.5491,4.5532,4.5561,4.5609,4.5669,4.568,4.5741,4.5785,4.5858,4.5887,4.5934,4.5924,4.5941,4.5945,4.5949,4.5951,4.5847,4.5944,4.5944,4.5943,4.5943,4.5943,0,4.5361,4.5392,4.5442,4.5503,4.5546,4.5545,4.5593,4.5629,4.5683,4.5724,4.577,4.5836,4.5889,4.5925,4.5979,4.601,4.6012,4.6023,4.602,4.6026,4.5957,4.5941,4.602,4.602,4.602,4.602,4.602,4.602,4.5412,4.548,4.5498,4.5583,4.5613,4.5674,4.5701,4.5737,4.5771,4.5844,4.5889,4.5913,4.5951,4.6008,4.6057,4.6066,4.6085,4.6096,4.6105,4.6039,4.6031,4.6023,4.6009,4.6101,4.6101,4.617,4.617,4.6171]}]]